Weather History for Vidsel, Sweden

Change the Weather History Date:

Thursday, February 7, 2013

  Actual Average Record
Temperature  
Mean Temperature -6 °F -  
Max Temperature 3 °F - - ()
Min Temperature -14 °F - - ()
Degree Days  
Heating Degree Days 70    
Moisture  
Dew Point -5 °F    
Average Humidity 83    
Maximum Humidity 85    
Minimum Humidity 77    
Precipitation  
Precipitation 0.00 in - - ()
Sea Level Pressure  
Sea Level Pressure 29.97 in    
Wind  
Wind Speed 2 mph ()    
Max Wind Speed 5 mph    
Max Gust Speed -    
Visibility 5.3 miles    
Events Snow    
T = Trace of Precipitation, MM = Missing Value Source: Averaged Metar Reports

Daily Weather History Graph

Daily Weather History Graph

Search for Another Location

Airport:

Trip Planner

Search our weather history database for the weather conditions in past years. The results will help you decide how hot, cold, wet, or windy it might be!

Date:

Astronomy

Feb. 07, 2013 Rise Set
Actual Time 8:12 AM CET 3:35 PM CET
Civil Twilight 7:13 AM CET 4:34 PM CET
Nautical Twilight 6:12 AM CET 5:36 PM CET
Astronomical Twilight 5:13 AM CET 6:35 PM CET
Moon 6:33 AM CET (2/7) 11:45 AM CET (2/7)
Length of Visible Light 9h 20m
Length of Day
7h 22m
Waning Crescent, 11% of the Moon is Illuminated
Feb 7
Waning Crescent
Feb 10
New
Feb 17
First Quarter
Feb 25
Full
Mar 4
Last Quarter

Hourly Weather History & Observations

Time (CET) Temp. Windchill Dew Point Humidity Pressure Visibility Wind Dir Wind Speed Gust Speed Precip Events Conditions
12:20 AM -0.4 °F -8.3 °F -4.0 °F 85% 29.86 in 6.2 mi West 3.5 mph - N/A   Unknown
12:50 AM - - 32.0 °F N/A% 29.86 in 6.2 mi Variable 1.2 mph - N/A   Unknown
1:20 AM -5.8 °F - -9.4 °F 84% 29.86 in 6.2 mi Variable 2.3 mph - N/A   Scattered Clouds
1:50 AM -4.0 °F - -9.4 °F 78% 29.89 in 6.2 mi Variable 1.2 mph - N/A   Mostly Cloudy
2:20 AM -5.8 °F - -9.4 °F 84% 29.89 in 3.1 mi Variable 1.2 mph - N/A Snow Light Snow Showers
2:50 AM - - 32.0 °F N/A% 29.89 in 0.7 mi Calm Calm - N/A   Unknown
3:20 AM -4.0 °F -12.4 °F -7.6 °F 85% 29.89 in 6.2 mi WNW 3.5 mph - N/A Snow Light Snow Showers
3:50 AM -5.8 °F - -9.4 °F 84% 29.89 in 4.3 mi Variable 2.3 mph - N/A Snow Light Snow Showers
4:20 AM -7.6 °F - -13.0 °F 77% 29.89 in 4.3 mi Variable 1.2 mph - N/A Snow Light Snow
4:50 AM -7.6 °F - -11.2 °F 84% 29.89 in 6.2 mi Variable 2.3 mph - N/A Snow Light Snow
5:20 AM -7.6 °F - -11.2 °F 84% 29.92 in 6.2 mi Variable 2.3 mph - N/A Snow Light Snow
5:50 AM - - 32.0 °F N/A% 29.92 in 6.2 mi WNW 2.3 mph - N/A   Unknown
6:20 AM -9.4 °F - -13.0 °F 84% 29.92 in 6.2 mi West 2.3 mph - N/A Snow Light Snow
6:50 AM -11.2 °F -20.6 °F -14.8 °F 84% 29.92 in 6.2 mi West 3.5 mph - N/A Snow Light Snow
7:20 AM -7.6 °F -16.5 °F -11.2 °F 84% 29.92 in 6.2 mi West 3.5 mph - N/A Snow Light Snow
7:50 AM -5.8 °F -14.5 °F -9.4 °F 84% 29.95 in 6.2 mi West 3.5 mph - N/A Snow Light Snow
8:20 AM -5.8 °F -14.5 °F -9.4 °F 84% 29.95 in 6.2 mi West 3.5 mph - N/A Snow Light Snow
8:50 AM -4.0 °F -12.4 °F -7.6 °F 85% 29.95 in 6.2 mi West 3.5 mph - N/A Snow Light Snow
9:20 AM -4.0 °F - -7.6 °F 85% 29.95 in 6.2 mi Variable 1.2 mph - N/A Snow Light Snow
9:50 AM -4.0 °F - -7.6 °F 85% 29.95 in 6.2 mi Calm Calm - N/A Snow Light Snow
10:20 AM -2.2 °F - -5.8 °F 85% 29.95 in 6.2 mi Variable 1.2 mph - N/A Snow Light Snow
10:50 AM -2.2 °F - -5.8 °F 85% 29.95 in 5.6 mi Variable 1.2 mph - N/A Snow Light Snow
11:20 AM -2.2 °F - -5.8 °F 85% 29.98 in 6.2 mi Variable 2.3 mph - N/A Snow Light Snow
11:50 AM -0.4 °F - -4.0 °F 85% 29.98 in 6.2 mi Variable 2.3 mph - N/A Snow Light Snow
12:20 PM 1.4 °F - -4.0 °F 78% 29.98 in 6.2 mi Variable 2.3 mph - N/A   Ice Crystals
12:50 PM 1.4 °F -8.3 °F -2.2 °F 85% 29.98 in 6.2 mi West 4.6 mph - N/A   Partly Cloudy
1:20 PM 1.4 °F -6.2 °F -2.2 °F 85% 29.98 in 6.2 mi WNW 3.5 mph - N/A   Partly Cloudy
1:50 PM 3.2 °F - -0.4 °F 85% 29.98 in 6.2 mi West 2.3 mph - N/A   Partly Cloudy
2:20 PM 3.2 °F - -0.4 °F 85% 29.98 in 6.2 mi Variable 2.3 mph - N/A   Partly Cloudy
2:50 PM 1.4 °F - -2.2 °F 85% 29.98 in 6.2 mi Variable 2.3 mph - N/A   Partly Cloudy
3:20 PM -0.4 °F - -4.0 °F 85% 29.98 in 6.2 mi Variable 1.2 mph - N/A   Scattered Clouds
3:50 PM -2.2 °F - -5.8 °F 85% 29.98 in 6.2 mi Calm Calm - N/A Snow Light Snow Showers
4:50 PM - - 32.0 °F N/A% 30.01 in 1.2 mi Calm Calm - N/A   Unknown
5:20 PM -7.6 °F -16.5 °F -13.0 °F 77% 30.01 in 6.2 mi West 3.5 mph - N/A Snow Light Snow Showers
5:50 PM -7.6 °F -16.5 °F -13.0 °F 77% 30.01 in 6.2 mi West 3.5 mph - N/A   Partly Cloudy
6:20 PM -9.4 °F -18.6 °F -13.0 °F 84% 30.01 in 6.2 mi West 3.5 mph - N/A Snow Light Snow Showers
6:50 PM -11.2 °F - -14.8 °F 84% 30.01 in 1.6 mi West 1.2 mph - N/A Snow Light Snow Showers
7:20 PM -13.0 °F - -18.4 °F 77% 30.04 in 6.2 mi WSW 1.2 mph - N/A Snow Light Snow
7:50 PM -13.0 °F - -16.6 °F 84% 30.04 in 6.2 mi WSW 2.3 mph - N/A Snow Light Snow Showers
8:20 PM -13.0 °F -22.7 °F -18.4 °F 77% 30.04 in 6.2 mi West 3.5 mph - N/A Snow Light Snow Showers
8:50 PM -14.8 °F - -18.4 °F 84% 30.04 in 6.2 mi Variable 1.2 mph - N/A   Mostly Cloudy
9:20 PM -13.0 °F -22.7 °F -16.6 °F 84% 30.04 in 6.2 mi NW 3.5 mph - N/A   Overcast
9:50 PM -9.4 °F -18.6 °F -14.8 °F 77% 30.04 in 2.5 mi West 3.5 mph - N/A Snow Light Snow Showers
10:20 PM -7.6 °F -16.5 °F -11.2 °F 84% 30.04 in - WNW 3.5 mph - N/A Snow Light Snow Showers
10:50 PM -5.8 °F - -11.2 °F 77% 30.06 in 1.3 mi WNW 2.3 mph - N/A Snow Light Snow
11:20 PM - - 32.0 °F N/A% 30.06 in 0.9 mi West 2.3 mph - N/A   Unknown
11:50 PM -5.8 °F - -9.4 °F 84% 30.06 in 1.1 mi Variable 2.3 mph - N/A Snow Light Snow